Regional Weather Roundup
Issued by NWS

Home | Current Version | Previous Version | Text Only | Print | Product List | Glossary Off
Versions: 1 2 3 4 5 6 7 8 9 10 11 12 13 14 15 16 17 18 19 20 21 22 23 24 25 26 27 28 29 30 31 32 33 34 35 36 37 38 39 40 41 42 43 44 45 46 47 48 49 50

000
ASUS43 KTOP 230408
RWRKS

WEATHER ROUNDUP FOR KANSAS
NATIONAL WEATHER SERVICE GOODLAND KS
1000 PM CST SAT NOV 22 2014

NOTE:  "FAIR" INDICATES FEW OR NO CLOUDS BELOW 12,000 FEET WITH NO
SIGNIFICANT WEATHER AND/OR OBSTRUCTIONS TO VISIBILITY.

KSZ001>006-013>018-027>032-041>047-230500-
NORTHWEST KANSAS

CITY           SKY/WX    TMP DP  RH WIND       PRES   REMARKS
GOODLAND       CLOUDY    38  22  52 CALM      29.50F
HAYS           CLOUDY    55  46  71 S25       29.56F
HILL CITY      MOCLDY    54  49  83 S22G30    29.53F
RUSSELL        CLOUDY    56  51  84 S17       29.56F
$$

KSZ061>065-074>080-084>089-230500-
SOUTHWEST KANSAS

CITY           SKY/WX    TMP DP  RH WIND       PRES   REMARKS
DODGE CITY     CLOUDY    53  49  86 S21       29.60F
ELKHART          N/A    N/A N/A N/A MISG        N/A
GARDEN CITY    CLOUDY    51  48  89 S23G32    29.55F
GREAT BEND     CLOUDY    55  48  76 S23G31    29.60F
LIBERAL        CLOUDY    52  45  76 S20       29.60F
PRATT          CLOUDY    54  50  87 S21       29.63S
$$

KSZ066>073-081>083-090>101-230500-
SOUTHEAST KANSAS

CITY           SKY/WX    TMP DP  RH WIND       PRES   REMARKS
CHANUTE        CLOUDY    53  51  93 S9        29.73F
COFFEYVILLE    MOCLDY    55  52  89 SE14      29.72F
HUTCHINSON     CLOUDY    54  50  86 S18       29.64F
MEDICINE LODGE   N/A     52  51  97 S7G16     29.64F
NEWTON         CLOUDY    54  48  82 S21G28    29.67F
PARSONS        MOCLDY    54  52  93 S5        29.74F
WICHITA INTL   CLOUDY    54  51  90 S18       29.66F
WICHITA JABRA  CLOUDY    54  51  90 S20       29.66F
WICHITA MCCONL CLOUDY    54  54 100 S18       29.67F
WINFIELD       MOCLDY    54  52  93 S17G28    29.68F
$$

KSZ007>012-019>026-033>040-048>060-102>105-230500-
NORTHEAST KANSAS

CITY           SKY/WX    TMP DP  RH WIND       PRES   REMARKS
CONCORDIA      CLOUDY    58  54  86 S18G28    29.58F
EMPORIA        CLOUDY    54  51  90 S16G22    29.68F
LAWRENCE       CLOUDY    56  50  80 S10G20    29.71F
MANHATTAN      CLOUDY    57  52  83 S13G23    29.64F
MARYSVILLE     CLOUDY    55  52  88 S15G21    29.62S
OLATHE IND     CLOUDY    54  51  90 S15G21    29.73F
OLATHE EXE     CLOUDY    55  51  86 S12G21    29.72F
SALINA         PTCLDY    56  51  84 S18G28    29.61F
TOPEKA BILLARD CLOUDY    57  52  83 S14G23    29.69F
TOPEKA FORBES  CLOUDY    56  51  84 S14G28    29.68F
$$


USA.gov is the U.S. government's official web portal to all federal, state and local government web resources and services.